Weather reports worldwide

Advertisment
New York City, ny, United States of America (2074728): temperature & dewpoint: 19.05.2019 18:00:00 - 25.05.2019 18:00:00 (EDT)New York City, ny, United States of America (2074728): wind speed & gusts: 19.05.2019 18:00:00 - 25.05.2019 18:00:00 (EDT)New York City, ny, United States of America (2074728): wind direction: 19.05.2019 18:00:00 - 25.05.2019 18:00:00 (EDT)New York City, ny, United States of America (2074728): reduced air pressure: 19.05.2019 18:00:00 - 25.05.2019 18:00:00 (EDT)New York City, ny, United States of America (2074728): visibility: 19.05.2019 18:00:00 - 25.05.2019 18:00:00 (EDT)New York City, ny, United States of America (2074728): precipitation: 19.05.2019 18:00:00 - 25.05.2019 18:00:00 (EDT)
Date & Time tt [°C] td [°C] ff [km/h] ff [kn] fx [km/h] fx [kn] dd ppp [hPa] vv [km] rr [mm]
25.05.2019 18:00:00 17,8 7,2 9 5 - - - 1019,8 16 -
25.05.2019 17:00:00 18,3 6,7 15 8 - - SE 1020,5 16 -
25.05.2019 16:00:00 19,4 8,9 - - - - - 1020,9 16 -
25.05.2019 15:00:00 20,6 10,0 15 8 - - SE 1021,7 16 -
25.05.2019 14:00:00 21,1 10,0 8 4 - - - 1022,4 16 -
25.05.2019 13:00:00 21,1 10,0 - - - - - 1023,4 16 -
25.05.2019 12:00:00 20,6 10,6 - - - - - 1024,0 16 -
25.05.2019 11:00:00 18,9 10,0 8 4 - - - 1023,9 16 -
25.05.2019 10:00:00 17,2 9,4 11 6 - - SE 1023,8 16 -
25.05.2019 09:00:00 16,1 10,6 0 0 - - N 1023,9 16 -
25.05.2019 08:00:00 15,6 10,0 5 3 - - - 1023,7 16 -
25.05.2019 07:00:00 14,4 9,4 5 3 - - - 1023,1 16 -
25.05.2019 06:00:00 12,8 8,9 0 0 - - N 1022,5 16 -
25.05.2019 05:00:00 13,9 9,4 5 3 - - - 1021,7 16 -
25.05.2019 04:00:00 14,4 9,4 8 4 - - SE 1021,3 16 -
25.05.2019 03:00:00 15,0 10,0 0 0 - - N 1021,3 16 -
25.05.2019 02:00:00 15,6 9,4 0 0 - - N 1020,8 16 -
25.05.2019 01:00:00 16,1 9,4 0 0 - - N 1020,6 16 -
25.05.2019 00:00:00 16,1 9,4 8 4 - - N 1020,2 16 -
24.05.2019 23:00:00 17,2 8,9 5 3 - - - 1020,0 16 -
24.05.2019 22:00:00 17,8 8,9 9 5 - - - 1020,0 16 -
24.05.2019 21:00:00 18,9 8,9 - - - - - 1019,3 16 -
24.05.2019 20:00:00 20,0 9,0 13 7 - - N 1018,3 16 -
24.05.2019 19:00:00 21,1 10,0 9 5 - - - 1016,9 16 -
24.05.2019 18:00:00 21,1 10,0 9 5 - - - 1015,9 16 -
24.05.2019 17:00:00 21,7 10,0 - - - - - 1015,2 16 -
24.05.2019 16:00:00 22,2 10,0 16 9 - - WNW 1014,2 16 -
24.05.2019 15:00:00 22,8 9,4 13 7 - - NNE 1013,8 16 -
24.05.2019 14:00:00 22,2 10,0 - - 50 27 - 1013,3 16 -
24.05.2019 13:00:00 21,7 10,0 18 10 - - NNW 1013,0 16 -
24.05.2019 12:00:00 22,2 9,4 26 14 - - WNW 1012,0 16 -
24.05.2019 11:00:00 21,1 8,9 - - - - - 1011,8 16 -
24.05.2019 10:00:00 20,0 8,9 16 9 52 28 WNW 1011,0 16 -
24.05.2019 09:00:00 19,4 8,9 15 8 50 27 WNW 1011,5 16 -
24.05.2019 08:00:00 18,9 9,4 18 10 - - WNW 1011,1 16 -
24.05.2019 07:00:00 18,9 11,1 13 7 - - W 1010,8 16 -
24.05.2019 06:00:00 19,4 13,3 15 8 - - WNW 1009,9 16 -
24.05.2019 05:00:00 20,0 15,0 11 6 - - - 1009,0 16 -
24.05.2019 04:00:00 20,0 17,2 8 4 - - W 1008,6 16 -
24.05.2019 03:00:00 20,0 18,3 13 7 - - WSW 1008,7 16 -
24.05.2019 02:00:00 20,0 18,3 9 5 - - W 1009,0 13 -
24.05.2019 01:00:00 20,6 18,3 - - - - - 1009,0 16 -
24.05.2019 00:00:00 20,0 18,9 9 5 - - - 1009,4 11 0,0
23.05.2019 23:00:00 20,0 18,9 15 8 - - SW 1010,4 13 -
23.05.2019 22:00:00 18,9 17,2 5 3 - - - 1010,7 16 -
23.05.2019 21:00:00 18,3 16,7 0 0 - - N 1011,2 16 -
23.05.2019 20:00:00 18,9 16,7 8 4 - - - 1012,0 16 -
23.05.2019 19:00:00 18,9 17,2 5 3 - - - 1012,8 15 -
23.05.2019 18:00:00 18,9 17,8 0 0 - - N 1013,5 11 -
23.05.2019 17:00:00 18,9 17,2 5 3 - - SW 1015,2 15 5,1
23.05.2019 16:00:00 17,8 16,1 8 4 - - - 1015,6 0,8 2,5
23.05.2019 15:00:00 21,7 13,9 - - - - - 1016,2 16 -
23.05.2019 14:00:00 20,6 12,8 13 7 - - W 1017,8 16 -
23.05.2019 13:00:00 20,0 11,1 - - - - - 1019,2 16 -
23.05.2019 12:00:00 18,3 10,0 - - - - - 1020,1 16 -
23.05.2019 11:00:00 17,2 10,6 5 3 - - - 1021,4 16 -
23.05.2019 10:00:00 14,4 10,6 5 3 - - - 1022,2 16 0,0
23.05.2019 09:00:00 13,3 12,2 8 4 - - - 1023,0 11 0,3
23.05.2019 08:00:00 12,8 11,7 8 4 - - - 1022,8 16 0,0
23.05.2019 07:00:00 13,9 12,8 13 7 - - SW 1023,6 15 3,3
23.05.2019 06:00:00 13,9 12,8 5 3 - - SSW 1023,3 4,8 2,0
23.05.2019 05:00:00 17,8 8,3 5 3 - - - 1023,3 16 -
23.05.2019 04:00:00 18,3 6,7 - - - - - 1021,7 16 -
23.05.2019 03:00:00 17,8 6,7 5 3 - - SW 1021,7 16 -
23.05.2019 02:00:00 18,3 6,7 5 3 - - SW 1022,5 16 -
23.05.2019 01:00:00 18,3 7,2 8 4 - - SW 1022,9 16 -
23.05.2019 00:00:00 18,9 6,7 8 4 - - - 1023,2 16 -
22.05.2019 23:00:00 19,4 6,1 - - - - - 1023,4 16 -
22.05.2019 22:00:00 19,4 5,6 5 3 - - - 1023,3 16 -
22.05.2019 21:00:00 19,4 5,0 5 3 - - - 1022,9 16 -
22.05.2019 20:00:00 20,6 4,4 5 3 - - SSE 1022,4 16 -
22.05.2019 19:00:00 22,2 2,2 5 3 - - - 1022,4 16 -
22.05.2019 18:00:00 22,2 1,7 0 0 - - N 1022,7 16 -
22.05.2019 17:00:00 22,8 1,1 8 4 - - - 1022,9 16 -
22.05.2019 16:00:00 22,8 1,7 0 0 - - N 1022,8 16 -
22.05.2019 15:00:00 22,8 1,7 - - - - - 1023,0 16 -
22.05.2019 14:00:00 22,8 0,6 8 4 - - - 1022,8 16 -
22.05.2019 13:00:00 22,2 2,8 13 7 - - ENE 1023,4 16 -
22.05.2019 12:00:00 21,1 2,2 11 6 - - - 1024,0 16 -
22.05.2019 11:00:00 19,4 2,8 8 4 - - - 1023,8 16 -
22.05.2019 10:00:00 17,8 2,2 9 5 - - - 1023,7 16 -
22.05.2019 09:00:00 16,1 2,8 8 4 - - - 1023,6 16 -
22.05.2019 08:00:00 14,4 3,9 11 6 - - WNW 1023,2 16 -
22.05.2019 07:00:00 13,3 2,8 9 5 - - - 1022,3 16 -
22.05.2019 06:00:00 12,2 2,8 8 4 - - W 1021,9 16 -
22.05.2019 05:00:00 12,8 3,3 8 4 - - - 1021,0 16 -
22.05.2019 04:00:00 13,3 3,3 0 0 - - N 1020,5 16 -
22.05.2019 03:00:00 14,4 2,2 5 3 - - - 1020,2 16 -
22.05.2019 02:00:00 15,0 1,7 9 5 - - - 1020,3 16 -
22.05.2019 01:00:00 15,6 1,7 0 0 - - N 1019,8 16 -
22.05.2019 00:00:00 16,1 1,7 0 0 - - N 1019,6 16 -
21.05.2019 23:00:00 16,7 1,7 - - - - - 1019,5 16 -
21.05.2019 22:00:00 17,2 1,7 9 5 - - - 1018,6 16 -
21.05.2019 21:00:00 18,3 1,1 9 5 - - - 1017,5 16 -
21.05.2019 20:00:00 20,0 -1,1 13 7 - - N 1016,0 16 -
21.05.2019 19:00:00 20,6 0,0 13 7 - - NW 1014,6 16 -
21.05.2019 18:00:00 21,1 0,0 - - - - - 1014,1 16 -
21.05.2019 17:00:00 21,1 1,1 11 6 - - - 1013,2 16 -
21.05.2019 16:00:00 21,1 3,3 5 3 - - - 1012,8 16 -
21.05.2019 15:00:00 20,6 2,8 8 4 - - - 1012,8 16 -
21.05.2019 14:00:00 20,6 3,9 - - - - - 1013,0 16 -
21.05.2019 13:00:00 18,3 2,2 8 4 - - - 1013,4 16 -
21.05.2019 12:00:00 17,2 2,2 15 8 - - WNW 1013,8 16 -
21.05.2019 11:00:00 15,6 2,8 11 6 - - - 1014,0 16 -
21.05.2019 10:00:00 14,4 3,3 8 4 - - - 1013,9 16 -
21.05.2019 09:00:00 13,9 3,9 18 10 - - WNW 1013,6 16 -
21.05.2019 08:00:00 13,9 4,4 21 11 - - NW 1013,5 16 -
21.05.2019 07:00:00 14,4 5,0 9 5 - - - 1012,4 16 -
21.05.2019 06:00:00 15,0 5,0 11 6 - - W 1011,7 16 -
21.05.2019 05:00:00 15,6 5,6 0 0 - - N 1011,0 16 -
21.05.2019 04:00:00 16,7 5,6 15 8 - - WNW 1010,4 16 -
21.05.2019 03:00:00 17,8 7,2 - - - - - 1010,2 16 -
21.05.2019 02:00:00 18,3 8,9 8 4 - - - 1009,3 16 -
21.05.2019 01:00:00 20,0 10,0 9 5 - - - 1009,2 16 -
21.05.2019 00:00:00 21,7 11,7 - - - - - 1008,9 16 -
20.05.2019 23:00:00 25,0 9,4 13 7 - - W 1007,3 16 -
20.05.2019 22:00:00 25,6 9,4 13 7 - - W 1006,7 16 -
20.05.2019 21:00:00 26,7 10,0 11 6 - - - 1006,4 16 -
20.05.2019 20:00:00 27,2 15,0 5 3 - - - 1005,8 16 -
20.05.2019 19:00:00 27,8 16,1 16 9 - - W 1005,6 16 -
20.05.2019 18:00:00 28,9 15,0 11 6 48 26 - 1005,4 16 -
20.05.2019 17:00:00 29,4 15,0 - - 52 28 - 1005,3 16 -
20.05.2019 16:00:00 29,4 16,1 9 5 - - - 1005,8 16 -
20.05.2019 15:00:00 28,3 16,7 11 6 - - SW 1006,9 16 -
20.05.2019 14:00:00 28,3 16,1 11 6 - - WSW 1007,7 16 -
20.05.2019 13:00:00 28,3 17,8 9 5 - - - 1008,6 16 -
20.05.2019 12:00:00 26,7 17,8 18 10 - - W 1009,1 16 -
20.05.2019 11:00:00 26,1 17,8 5 3 - - - 1009,3 16 -
20.05.2019 10:00:00 24,4 18,9 11 6 - - - 1009,9 16 -
20.05.2019 09:00:00 23,3 18,3 11 6 - - - 1010,3 16 -
20.05.2019 08:00:00 21,1 18,3 15 8 - - SW 1010,1 15 -
20.05.2019 07:00:00 20,0 17,8 0 0 - - N 1010,1 13 -
20.05.2019 06:00:00 18,9 17,8 5 3 - - - 1009,9 10 -
20.05.2019 05:00:00 19,4 18,3 5 3 - - - 1010,0 6 0,0
20.05.2019 04:00:00 19,4 18,9 0 0 - - N 1011,4 10 0,0
20.05.2019 03:00:00 19,4 18,3 0 0 - - N 1012,2 16 -
20.05.2019 02:00:00 20,6 19,4 0 0 - - N 1013,2 15 -
20.05.2019 01:00:00 20,6 20,0 0 0 - - N 1012,5 4,0 1,3
20.05.2019 00:00:00 20,6 18,9 5 3 - - - 1013,4 13 0,3
19.05.2019 23:00:00 21,1 17,8 5 3 - - - 1013,2 15 -
19.05.2019 22:00:00 21,7 18,3 5 3 - - - 1013,4 16 -
19.05.2019 21:00:00 21,1 17,8 8 4 - - S 1012,9 16 -
19.05.2019 20:00:00 22,2 17,8 - - - - - 1012,8 16 -
19.05.2019 19:00:00 22,8 18,3 13 7 - - S 1012,7 16 -
19.05.2019 18:00:00 23,3 18,3 5 3 - - - 1013,0 16 -

tt = temperature
td = dewpoint
ff = wind speed
fx = gusts
dd = wind direction
ppp = reduced air pressure
vv = visibility
rr = precipitation

Next stations